User: anonymous   Login
Location: Unspecified
(0.0000°N, 0.0000°E)
Time: 02:48:51
(UTC+00:00)
Language:

SWAYAM - Orbit

View from above orbital plane
View from above orbital plane
View from above satellite
View from above satellite

Ground track
Ground track

The orbit data is extracted from the following two-line orbital elements,

1 41607U 16040J   17147.40323814 +.00001892 +00000-0 +89013-4 0  9999
2 41607 097.4617 209.8859 0015555 144.0368 216.1917 15.20691634051440
Epoch (UTC): 27 May 2017 09:40:39
Eccentricity: 0.0015555
inclination: 97.4617°
perigee height: 493 km
apogee height: 514 km
right ascension of ascending node: 209.8859°
argument of perigee: 144.0368°
revolutions per day: 15.20691634
mean anomaly at epoch: 216.1917°
orbit number at epoch: 5144

The dashed part of the orbit path shows where the satellite is in the earth's shadow,  

DLR